Location: Le Castellard
(44.1862°N, 6.1301°E)
Time: 02:54:33
(UTC+00:00)

Daily predictions for brighter satellites

Satellite Brightness Start Highest point End
(mag) Time Altitude Azimuth Time Altitude Azimuth Time Altitude Azimuth
Cosmos 2219 4.3 04:05:52 35° SSE 04:05:52 35° SSE 04:09:05 10° SSE
USA 215 3.2 03:57:15 10° ESE 04:03:46 75° NE 04:03:57 74° NNE
Cosmos 2074 Rocket 4.4 04:02:28 12° N 04:08:22 60° E 04:14:29 10° SSE
Cosmos 1470 4.5 04:18:30 10° SSE 04:22:04 33° E 04:25:40 10° NNE
Cosmos 2297 Rocket 2.2 04:23:29 76° SSE 04:23:29 76° SSE 04:28:40 10° SSE
Cosmos 2227 Rocket 2.0 04:34:28 81° W 04:34:38 82° WSW 04:40:16 10° SSE
ALOS 3.2 04:31:11 10° NNE 04:35:43 47° E 04:40:13 10° S
COSMO-SKYMED 1 2.7 04:36:46 10° SSE 04:41:04 72° ENE 04:41:17 70° NE
Cosmos 2263 Rocket 4.4 04:40:11 10° N 04:44:13 20° NE 04:48:17 10° E
Cosmos 2278 4.5 04:43:32 10° S 04:49:03 53° ESE 04:54:36 10° NE
SL-4 R/B 3.2 04:51:23 28° NNE 04:51:23 28° NNE 04:53:56 10° ENE
NOSS 2-2 (D) 4.4 04:50:09 26° S 04:51:39 39° ESE 04:55:18 10° NE
STARLINK-43 4.3 04:54:31 39° NNE 04:54:31 39° NNE 04:57:06 10° NE
Cosmos 1656 3.5 04:55:43 55° W 04:56:25 60° WNW 05:01:50 10° NNE
Cosmos 2369 3.7 04:50:43 10° SSW 04:56:26 82° ESE 05:02:12 10° NNE
STARLINK-48 3.9 04:56:07 52° S 04:56:35 56° SE 05:00:24 10° ENE
Cosmos 2327 Rocket 4.4 04:51:26 10° N 04:57:45 83° W 05:03:56 10° S
Nadezhda 1 Rocket 3.8 04:55:15 10° S 05:01:20 83° W 05:07:27 10° N
STARLINK-80 3.3 05:01:50 87° E 05:01:50 87° E 05:05:36 10° NE
Abrixas rocket 3.7 05:05:22 28° NE 05:05:22 28° NE 05:07:17 10° ENE
SKYMED 3 4.5 05:00:35 10° S 05:04:52 64° WSW 05:05:21 59° WNW
CZ-3 R/B 3.7 04:56:40 16° WSW 05:08:33 33° SSW 05:14:39 10° SE
MOS 1-B 4.3 05:04:03 10° NNE 05:09:53 87° WNW 05:15:41 10° SSW
Lacrosse 5 rocket 3.0 05:10:54 24° NNW 05:10:54 24° NNW 05:14:20 10° NNE
METEOR-M 4.0 05:07:18 10° NNE 05:12:41 82° WNW 05:18:01 10° SSW
Meteor 1-21 Rocket 4.5 05:07:34 10° N 05:13:26 74° ENE 05:19:20 10° SSE
CZ-4B R/B 3.7 05:08:46 10° NNE 05:14:20 62° ESE 05:19:45 10° S
Cosmos 1758 3.2 05:11:27 10° SSW 05:15:24 59° W 05:19:22 10° N
Cosmos 1626 3.6 05:20:40 23° SW 05:20:40 23° SW 05:22:19 10° SSW
Meteor 1-24 Rocket 4.4 05:20:04 32° W 05:20:08 32° W 05:25:14 10° SSW
Cosmos 2184 Rocket 4.3 05:15:01 10° NNW 05:20:45 41° W 05:26:30 10° SSW
Cosmos 1602 Rocket 3.7 05:21:44 37° NW 05:22:50 46° W 05:26:58 10° SSW
Cosmos 1953 2.2 05:19:37 10° S 05:23:40 88° W 05:27:45 10° N
Cosmos 1980 Rocket 2.4 05:19:01 10° SSW 05:24:40 74° ESE 05:30:22 10° NNE
NOAA 6 4.1 05:20:20 10° NNE 05:25:34 84° ESE 05:30:45 10° SSW
Cosmos 44 Rocket 3.1 05:24:26 26° NW 05:27:08 85° WSW 05:31:53 10° SSE
Cosmos 2154 Rocket 4.0 05:22:24 10° NNW 05:28:27 56° W 05:34:28 10° SSW
Cosmos 2228 3.7 05:24:27 10° S 05:28:44 58° E 05:33:05 10° NNE
SKYMED 2 4.1 05:25:13 10° SSW 05:29:10 35° W 05:29:50 33° WNW
NOSS 2-2 (C) 3.0 05:27:46 21° SW 05:30:07 79° NW 05:34:08 10° NE
Meteor 2-17 Rocket 4.3 05:25:53 10° NNW 05:31:58 71° W 05:37:59 10° S
Okean O Rocket 1.5 05:27:46 10° NNE 05:32:15 84° WNW 05:36:42 10° SSW
FENGYUN 3A 3.7 05:27:03 10° N 05:32:20 56° WNW 05:37:36 10° SSW
SJ-12 4.3 05:28:42 10° N 05:32:28 37° WNW 05:36:14 10° SW
Cosmos 1953 Rocket 4.2 05:29:20 10° N 05:33:45 58° E 05:38:05 10° SSE
Cosmos 1697 Rocket 2.7 05:28:37 10° SW 05:34:06 54° WNW 05:39:37 10° NNE
STARLINK-61 4.4 05:33:08 10° SW 05:36:57 49° SE 05:40:48 10° ENE
SMAP 4.2 05:32:50 10° NNE 05:37:19 46° E 05:41:47 10° S
Cosmos 1758 Rocket 3.4 05:34:58 10° NNW 05:39:19 72° W 05:43:41 10° S
NOSS 2-2 (E) 3.4 05:39:28 23° WSW 05:41:29 49° NW 05:45:32 10° NNE
ATLAS 3B R/B 3.7 05:38:36 10° NNW 05:44:55 41° NE 05:51:21 10° ESE
STARLINK-67 4.1 05:46:17 20° SW 05:46:20 20° SW 05:48:23 10° S
Meteor 2-10 4.2 05:41:10 10° S 05:46:47 84° E 05:52:15 10° NNE
USA 215 4.0 05:41:17 10° SSE 05:47:07 34° SW 05:51:19 17° WNW
Cosmos 1726 2.0 05:44:07 10° S 05:47:48 85° W 05:51:29 10° N
STARLINK-26 3.2 05:45:28 14° SW 05:48:27 85° SE 05:51:59 10° ENE
NOSS 3-2 (A) 4.1 05:43:21 11° NW 05:50:40 83° SW 05:59:08 10° SSE
SJ-7 4.4 05:47:30 10° N 05:51:34 62° WNW 05:55:41 10° SSW
Cosmos 2082 4.4 05:49:00 17° NW 05:52:33 32° WSW 05:57:33 10° SSW
STARLINK-75 4.5 05:51:00 10° SSW 05:54:45 48° SE 05:58:33 10° ENE
Cosmos 1470 4.1 05:56:19 14° WSW 05:58:12 19° WNW 06:01:08 10° NNW
Cosmos 2058 Rocket 3.4 05:54:15 10° S 05:58:38 70° E 06:03:01 10° NNE
Helios 1A Rocket 3.0 05:55:09 10° N 05:59:10 53° WNW 06:03:11 10° SSW
Cosmos 2366 rocket 4.1 05:54:28 10° N 06:00:51 87° E 06:07:13 10° S
Cosmos 2344 3.9 05:57:54 10° WSW 06:05:05 47° NW 06:13:08 10° NNE
STARLINK-41 4.4 06:01:39 10° SW 06:05:25 50° SE 06:09:13 10° ENE
Cosmos 2297 Rocket 3.8 06:05:22 13° W 06:06:10 13° W 06:08:42 10° WSW
Cosmos 1825 Rocket 3.9 06:02:14 10° NNW 06:06:18 41° W 06:10:22 10° SSW
BREEZE M DEB (TANK) 2.7 06:04:25 12° WSW 06:06:46 76° NNW 06:12:45 10° ENE
CORIOLIS 4.5 06:02:59 10° NNE 06:08:21 71° ESE 06:13:41 10° S
STARLINK-28 3.7 06:05:12 10° SW 06:08:42 62° SE 06:12:13 10° ENE
Cosmos 1328 3.7 06:06:25 10° NNW 06:10:25 69° W 06:14:21 10° S
Cosmos 2322 Rocket 3.5 06:06:09 10° S 06:11:30 46° ESE 06:16:55 10° NE
CENTAUR R/B 3.4 06:04:36 10° NW 06:12:41 79° NE 06:21:27 10° SE
ALOS 3.5 06:09:23 10° NNW 06:12:48 20° WNW 06:16:12 10° WSW
STARLINK 4.2 06:10:41 10° SW 06:14:29 55° SE 06:18:18 10° ENE
ATLAS 2AS CENTAUR R/B 3.2 06:07:06 10° SSW 06:15:04 87° SE 06:23:08 10° NE
STARLINK-34 4.0 06:13:00 10° SW 06:16:59 66° SE 06:20:59 10° ENE
Cosmos 2227 Rocket 3.9 06:16:21 10° W 06:17:43 11° W 06:19:25 10° WSW
COSMO-SKYMED 1 4.4 06:16:25 10° WSW 06:17:43 11° W 06:18:31 11° WNW
STARLINK-24 3.9 06:15:19 10° SW 06:19:18 69° SE 06:23:19 10° ENE
NOAA 12 4.4 06:14:35 10° NNE 06:19:53 74° ESE 06:25:10 10° S
STARLINK-81 4.0 06:16:02 10° SW 06:20:00 64° SE 06:24:00 10° ENE
COSMOS 2455 2.9 06:14:06 10° SW 06:20:00 58° NW 06:25:58 10° NNE
ADEOS Rocket 3.0 06:16:08 10° S 06:21:28 50° W 06:26:53 10° NNW
STARLINK-46 3.3 06:20:17 13° W 06:21:43 25° SW 06:23:30 10° SSE
STARLINK-54 3.8 06:17:48 10° SW 06:21:49 72° SE 06:25:50 10° ENE
STARLINK-77 3.9 06:19:18 10° SW 06:23:17 68° SE 06:27:18 10° ENE
IRS-1C Rocket 4.1 06:18:41 10° NNE 06:23:58 77° WNW 06:29:13 10° SSW
Cosmos 2181 Rocket 4.2 06:18:28 10° SSW 06:24:26 50° WNW 06:30:31 10° N
Cosmos 1606 Rocket 4.3 06:20:37 10° SW 06:24:37 32° WNW 06:28:39 10° N
Cosmos 2056 Rocket 4.2 06:19:29 10° NNW 06:24:53 60° ENE 06:30:14 10° SSE
STARLINK-25 3.9 06:20:58 10° SW 06:24:57 70° SE 06:28:58 10° ENE
USA 238 DEB 4.2 06:18:09 10° NW 06:25:03 49° WSW 06:32:07 10° S
USA 238 4.2 06:18:16 10° NW 06:25:09 49° WSW 06:32:14 10° S
AQUARIUS 4.2 06:20:46 10° N 06:25:14 63° WNW 06:29:40 10° SSW
STARLINK-71 3.7 06:22:47 10° SW 06:26:49 79° SE 06:30:50 10° ENE
Cosmos 1726 Rocket 4.1 06:23:48 10° SW 06:27:56 37° WNW 06:32:04 10° N
Cosmos 923 Rocket 4.1 06:22:56 10° SW 06:28:05 57° WNW 06:33:20 10° NNE
STARLINK-79 3.8 06:24:14 10° SW 06:28:15 75° SE 06:32:17 10° ENE
Cosmos 2263 Rocket 2.2 06:23:10 10° NNW 06:28:49 79° WSW 06:34:28 10° SSE
STARLINK-78 3.7 06:25:55 10° SW 06:29:56 77° SE 06:33:58 10° ENE
SL-4 R/B 1.6 06:27:08 10° WNW 06:30:41 79° SSW 06:34:04 10° SE
FALCON 9 DEB 2.7 06:29:32 10° SW 06:31:21 46° SE 06:33:12 10° ENE
STARLINK-57 3.7 06:27:39 10° SW 06:31:41 83° SE 06:35:43 10° ENE
STARLINK-49 3.7 06:29:11 10° SW 06:33:13 81° SE 06:37:15 10° ENE
STARLINK-27 3.6 06:30:51 10° SW 06:34:52 84° SE 06:38:55 10° ENE
STARLINK-48 4.3 06:31:48 10° W 06:35:23 34° NNW 06:38:58 10° NE
